Showing default

OV2-1, 1641

Orbit data source: Space-Track

OV2-1, 1641 is a payload satellite owned by USAF SSD (US) in LEO that was launched on Fri, 15 Oct 1965 UTC via a TITAN IIIC launch vehicle from the Air Force Eastern Test Range (AFETR). Payload-class satellites include a variety of spacecraft equipped with specific instruments for various scientific and technological missions. These include communications satellites like Starlink; space stations such as the ISS; scientific satellites like the Hubble; Earth observation satellites from companies like Planet Labs, Umbra, and HawkEye 360; GPS; miniature CubeSats for education and research; and military/defense satellites.

Loading next visibility...
Identifier
1641, 1965-082C
Orbit
LEO
Country
Flag of USUS
Related business
Manufacturer
Northrop
Mission
Non-operational spacecraft
Bus & Motor
OV2, Unknown motor
Mass
170 kg wet, 170 kg dry
Launch date (UTC)
1965-10-15 (61 years ago)
Launch vehicle
TITAN IIIC
Launch site
Air Force Eastern Test Range (AFETR)
Object type
Payload
Rocket body
Debris
Shape & HBR
Unknown
Radar Cross Section
Medium (>0.1 m² and <1 m²)

Expand to show TLE details & history
Last TLE update: 21 hours ago

TLE from 21 hours ago
0 OV2-1
1 01641U 65082C   26123.37260592  .00000248  00000-0  49366-4 0  9997
2 01641  32.2952 124.2918 0018520 167.3537 192.7576 14.54796726210766
Epoch: 2026-05-03T08:56Z
TLE epoch observation values (Epoch: 2026-05-03T08:56:33.151Z)
Latitude
-0.00001°
Longitude
128.87656°
Altitude
721.497 km
Speed
7.49 km/s
True Right ascension
08h 17m 10s
True Declination
0° 00' 00"
Sunlit
Object was in daylight at epoch
Visualization orbit readout
Latitude
Unknown
Longitude
Unknown
Altitude
Unknown
Speed
Unknown
Apparent Right ascension
Unknown
Apparent Declination
Unknown
Sunlit
N/A
Visualization observer readout
Local Sidereal Time
13:58:25
Azimuth
Unknown
Elevation
Unknown
Doppler factor
Unknown
Orbital elements
Apogee altitude
726.717 km
Perigee altitude
700.45 km
Semi-major axis
7,091.721 km
Eccentricity
0.00185
Inclination
32.2952°
RAAN
124.2918°
Arg. of periapsis
167.3537°
True anomaly
192.71084°
Mean anomaly
192.7576°
Eccentric anomaly
192.73421°
Mean motion
3.63426 °/min
Orbital period
99.06 mins
BSTAR
0.000049366

Documentation

Showing up to 5 results
|